Theta_e
327 318 314 321 313 311 311 304 295 293 287 287 285 286 289 293 292 294 294 295 295 298 297 302 299 300 299 297 299 303 308 304 299 294 289 300 320 336 335 336 338 340 340 340 341 344 345 346 349 349 348 348 348 348 348 347 347 346 345 345 344 344 343 342 341 341 340 340 340 340 340 338 343 342 342 345 346 343 340 339 336 335 336 338 339 342 342 341 341 341 343 343 341 339 339 338 337
321 315 314 319 314 309 307 298 289 285 284 285 286 285 289 291 294 292 293 292 295 301 303 307 309 310 311 312 312 308 303 318 312 312 318 328 333 334 336 338 339 339 340 340 341 343 343 345 348 349 348 348 348 347 347 347 347 345 344 344 344 342 341 342 341 340 340 339 339 339 340 341 342 345 345 345 344 342 340 340 339 336 337 340 340 340 340 341 341 341 342 342 340 339 338 338 338
318 313 315 311 311 305 302 299 294 282 286 283 284 285 291 292 291 291 291 295 298 303 304 303 301 300 304 306 303 300 298 324 321 322 326 331 330 331 337 338 339 341 341 340 341 342 343 344 346 348 348 348 348 347 347 347 346 345 344 344 344 343 342 341 341 341 341 340 339 340 339 339 339 340 342 341 341 339 339 338 336 335 338 338 340 340 339 340 341 341 341 341 341 339 339 340 340
315 317 313 308 308 301 296 291 287 286 287 281 283 289 291 290 291 291 293 296 299 299 299 300 300 300 306 306 307 314 318 320 321 323 325 328 324 336 338 339 339 342 343 342 341 342 342 344 346 349 348 348 348 348 347 346 346 345 345 345 344 342 342 342 341 341 340 339 338 338 343 342 345 346 346 344 341 340 339 337 336 337 339 338 338 339 339 340 340 341 341 341 341 340 341 342 341
316 319 309 306 303 302 295 290 284 282 284 282 285 286 290 290 293 292 297 296 295 295 298 298 303 306 307 308 306 303 307 317 325 322 322 325 333 339 339 339 341 342 342 341 341 341 341 343 346 348 348 348 348 348 347 346 346 345 344 343 343 342 342 342 342 342 341 341 340 340 340 342 345 344 345 345 344 341 339 338 337 337 337 338 339 340 341 340 340 342 343 342 343 342 341 341 341
311 312 312 310 304 303 294 290 288 285 285 286 286 290 290 293 294 293 297 296 296 294 296 296 302 304 307 309 309 307 314 316 322 323 324 326 336 339 339 339 340 341 342 343 342 341 341 342 344 347 348 348 348 347 347 346 347 345 344 344 343 343 342 342 342 342 341 341 341 340 340 340 341 344 345 344 344 341 339 338 337 336 337 338 339 340 340 340 340 340 343 342 342 341 340 340 340
312 306 304 303 303 298 294 284 284 284 291 288 288 290 294 293 294 294 295 297 298 298 296 301 302 304 304 306 310 315 316 320 322 324 326 330 338 339 338 338 340 340 341 342 342 342 342 342 347 349 348 348 348 347 347 347 347 346 345 344 343 342 342 342 342 342 342 340 338 339 339 343 344 343 344 343 342 340 340 338 337 336 337 338 338 338 339 340 340 341 340 340 341 340 340 340 340
311 307 303 296 293 291 286 284 286 284 291 290 290 295 294 295 292 294 294 295 296 298 300 300 299 296 298 307 304 313 318 320 323 325 331 336 337 338 337 338 338 339 341 341 341 343 345 341 346 347 348 348 348 347 347 347 346 346 345 344 343 342 342 342 342 342 342 341 340 339 342 342 342 342 342 342 341 339 338 338 337 336 336 336 337 337 337 339 340 339 340 340 340 339 339 339 339
308 305 302 297 293 286 283 287 288 287 289 292 293 295 301 295 293 293 293 294 295 295 297 299 296 296 297 306 305 311 315 322 326 330 334 336 337 337 338 337 338 339 340 341 342 344 343 339 344 347 347 348 348 347 347 347 346 346 344 344 343 343 343 342 342 342 342 341 340 339 341 341 341 341 341 341 341 340 339 337 337 336 336 336 336 337 337 338 339 339 339 339 338 338 337 338 337
304 303 296 293 289 288 282 286 287 291 291 292 293 295 296 294 293 293 292 294 296 294 297 295 295 296 298 304 308 315 319 321 327 331 333 336 336 336 337 337 339 339 339 341 342 344 343 344 341 344 345 347 347 347 347 347 346 346 345 344 342 342 342 342 342 341 341 341 340 339 339 338 338 340 340 340 340 340 339 338 337 336 336 335 336 336 337 337 337 338 338 338 337 337 337 337 336
299 298 297 295 284 284 286 285 283 289 293 291 293 293 295 292 293 292 293 294 294 296 296 297 301 301 303 303 305 311 317 322 328 328 332 335 335 335 337 338 339 340 339 341 342 344 344 343 342 340 343 344 345 347 347 346 346 345 344 343 342 342 341 341 341 341 341 341 340 340 339 338 338 337 338 338 338 338 337 337 336 336 335 337 336 336 336 336 337 338 337 337 337 336 336 335 335
298 296 297 286 285 285 283 285 287 288 290 291 295 296 293 294 292 293 294 295 295 295 296 299 300 301 300 300 303 309 316 323 325 329 331 333 334 336 337 339 340 340 341 342 343 343 344 342 341 341 339 341 341 344 344 345 345 345 345 344 342 342 342 341 341 340 340 340 340 339 338 338 337 336 336 336 335 335 335 335 334 335 335 334 336 336 336 336 336 336 336 336 335 335 335 335 334
296 294 289 288 288 286 285 286 287 290 288 289 292 296 292 293 293 293 293 294 293 294 296 295 302 300 296 300 301 310 320 323 324 327 329 332 334 336 338 340 340 340 341 342 343 343 344 343 342 340 338 336 336 339 340 342 343 344 344 344 342 341 341 341 341 341 340 340 339 339 338 338 337 336 335 335 335 335 333 333 333 333 333 333 335 334 335 335 335 335 335 334 335 335 334 334 333
297 295 293 293 285 285 285 286 284 288 287 289 290 293 293 293 293 294 294 294 293 293 295 296 302 300 299 301 305 309 317 322 323 325 327 330 333 336 338 340 339 340 341 342 342 343 343 343 343 342 339 338 339 336 334 337 340 342 343 342 341 341 341 341 341 340 340 340 339 337 337 336 336 336 336 336 335 334 333 333 332 332 332 332 334 334 334 334 334 334 334 334 334 334 333 332 331
302 297 290 287 285 286 285 287 289 285 288 288 294 292 293 295 292 292 297 293 294 293 298 301 300 300 295 301 297 311 321 323 323 324 327 330 333 336 337 339 338 338 340 341 342 342 342 342 342 342 340 339 338 338 336 337 336 338 339 338 338 339 339 338 338 338 336 336 335 333 333 331 331 332 332 332 333 332 331 330 332 332 331 331 333 333 333 333 333 333 332 333 332 332 331 330 329
300 294 290 291 286 286 287 287 284 285 288 290 294 291 293 294 291 295 295 295 296 297 297 299 299 297 297 299 299 312 322 323 322 325 328 328 330 334 337 337 337 337 338 339 340 341 341 341 341 340 340 340 339 338 337 337 333 333 336 337 336 336 336 335 335 334 329 328 327 328 326 326 325 324 324 326 328 330 328 327 330 331 330 330 330 331 331 331 331 331 330 331 330 329 328 327 326
298 296 294 285 289 287 288 287 287 287 287 290 291 292 293 293 294 295 294 296 298 296 301 302 300 308 300 301 308 308 322 322 323 325 327 327 330 331 334 335 335 335 336 337 339 339 340 339 339 338 340 339 338 337 337 336 335 331 332 331 331 331 332 332 330 325 322 321 322 321 322 323 321 321 321 321 320 322 321 324 328 330 329 328 329 330 330 329 329 329 329 328 326 323 320 321 321
298 292 288 288 285 286 288 289 290 289 292 292 292 292 292 292 294 297 297 296 292 294 297 297 306 311 314 312 309 315 321 323 323 325 325 325 328 328 331 332 333 332 333 334 336 339 338 338 338 338 338 338 338 338 338 338 336 335 335 333 331 329 327 325 325 325 325 322 321 322 322 321 320 319 320 323 320 321 322 322 324 327 329 329 328 328 328 328 328 328 327 325 323 319 315 311 311
291 288 287 289 285 290 292 289 291 292 292 294 294 289 294 293 294 295 294 293 294 295 296 296 304 307 313 313 315 320 322 321 322 323 324 324 327 328 330 331 331 333 332 333 334 337 338 338 338 338 338 338 338 338 338 337 338 338 337 335 331 327 326 325 324 323 322 322 321 321 320 319 319 318 319 320 319 319 321 321 323 326 328 327 326 326 326 326 326 326 324 321 319 315 309 308 308
294 292 290 285 290 290 290 290 291 291 293 293 292 291 292 293 294 295 295 291 292 293 294 295 301 300 309 313 315 319 321 320 321 322 323 324 327 329 330 331 331 333 333 333 333 336 337 336 337 339 339 339 338 337 337 337 338 338 337 335 330 326 324 324 323 322 322 321 321 320 319 318 318 318 320 320 319 319 320 320 319 316 317 318 318 319 322 322 322 320 318 316 312 309 307 307 307
294 291 286 291 290 292 293 290 290 290 291 293 291 290 292 293 292 294 290 293 292 291 291 297 298 300 311 314 316 318 319 319 319 319 322 324 325 328 331 333 333 334 335 335 334 335 336 337 337 338 338 339 338 337 336 336 338 337 337 336 332 326 323 322 321 321 321 320 320 319 318 317 317 317 317 316 316 316 317 317 314 309 307 306 310 306 306 307 307 306 307 307 306 307 306 306 307
291 293 290 291 289 292 293 290 291 290 289 292 289 293 292 293 294 290 294 291 291 295 296 295 298 309 314 314 316 317 318 319 319 319 321 322 323 327 330 332 332 332 333 334 334 335 336 336 337 337 337 338 338 338 336 336 337 337 336 335 332 328 325 322 320 320 320 319 319 318 317 317 316 316 315 314 314 315 315 313 308 305 304 303 305 304 304 304 304 305 305 305 304 305 304 304 304
294 291 290 288 289 294 292 292 291 289 291 291 290 292 293 292 293 289 293 294 292 292 293 296 295 313 316 317 317 317 317 318 318 319 320 321 322 325 329 331 331 331 332 334 336 336 337 336 336 336 336 337 338 338 337 335 337 338 337 336 332 328 326 323 320 319 319 319 319 318 317 316 315 315 314 313 312 311 313 310 305 303 302 302 303 303 303 303 303 304 304 303 303 304 303 303 303
289 291 290 293 290 294 291 293 289 288 293 291 291 293 293 291 294 291 290 292 291 291 291 292 297 313 315 315 316 318 318 318 319 320 321 322 323 324 327 329 332 332 331 333 335 336 335 336 336 336 336 337 337 338 337 336 337 338 337 334 333 329 326 324 322 320 319 318 318 318 317 317 315 314 313 312 311 310 310 308 304 302 302 301 302 303 302 302 302 302 303 302 302 302 302 301 302
292 292 290 292 291 291 289 288 289 290 290 291 291 293 293 291 293 291 291 294 294 292 294 294 309 313 313 315 315 316 316 317 318 319 318 320 321 320 319 325 328 328 329 331 334 335 336 336 336 336 336 336 337 338 337 336 337 338 337 335 334 328 328 325 323 321 319 319 318 317 317 316 315 314 312 311 310 310 308 305 303 302 301 300 301 301 302 302 302 302 302 301 301 301 301 300 300
290 292 289 291 292 291 290 292 290 290 293 290 293 292 291 291 291 292 293 293 293 295 297 302 310 311 312 313 315 315 315 316 317 317 318 318 314 316 319 320 324 326 329 331 332 333 336 337 336 336 336 336 337 337 337 336 337 337 337 335 336 330 332 328 323 321 321 320 319 318 317 316 315 314 312 310 309 308 307 304 303 302 300 299 300 301 301 301 301 301 301 300 300 300 300 300 300
290 289 289 291 291 292 291 293 291 290 292 290 291 291 292 291 292 289 290 291 294 296 296 300 309 310 311 312 313 314 315 315 316 318 314 314 314 316 319 317 319 324 327 329 331 332 333 335 336 336 337 335 337 336 337 336 336 337 336 337 336 333 334 331 325 322 321 321 319 318 317 316 315 314 312 309 308 308 306 303 302 301 299 299 300 300 300 300 300 301 300 300 300 299 299 298 298
291 291 290 291 288 292 291 291 292 291 294 287 292 292 291 291 292 290 294 291 292 296 295 298 300 306 310 310 312 313 314 316 316 312 315 315 316 317 317 318 319 321 323 326 329 331 330 332 335 336 337 336 336 337 336 336 336 336 336 337 336 335 335 333 329 323 320 322 322 319 318 317 316 315 312 309 308 307 306 304 303 300 299 298 299 299 299 299 300 299 299 299 299 298 297 297 297
291 292 291 289 286 292 291 292 292 291 293 293 292 291 290 291 290 292 292 290 294 294 295 295 297 299 303 307 309 310 313 314 311 312 315 317 318 319 318 319 320 320 323 325 326 327 329 329 332 334 335 334 335 336 336 337 337 337 336 336 336 335 335 334 331 327 322 322 325 320 318 318 317 315 313 310 308 308 307 305 304 301 299 298 298 298 298 298 298 298 298 298 298 297 296 295 296
292 290 288 288 285 285 291 290 291 292 293 291 291 284 283 286 293 293 292 290 291 293 293 293 294 294 295 298 304 308 309 307 309 312 315 315 316 317 317 319 319 319 321 322 322 324 327 328 329 331 332 332 332 335 335 335 336 337 336 337 336 335 335 335 332 331 326 323 326 322 319 318 317 316 314 310 308 307 307 305 305 300 299 298 298 298 298 298 298 298 297 297 297 296 295 295 295
291 290 286 283 285 284 288 290 290 292 292 290 290 283 281 284 286 286 286 290 292 292 292 292 293 293 292 294 298 302 306 307 310 311 313 314 314 316 317 318 318 318 318 318 320 323 324 327 328 329 328 330 328 331 331 333 334 334 335 336 336 335 334 335 334 333 331 327 326 326 321 319 317 317 315 311 308 306 306 306 306 301 299 299 299 299 299 298 297 297 297 296 295 295 294 294 293
283 287 284 283 283 282 286 289 289 290 292 289 289 283 285 286 287 288 289 290 290 291 291 291 291 292 292 291 293 296 300 303 305 306 308 311 312 313 315 316 318 318 319 320 320 320 322 324 325 327 327 327 327 328 329 329 331 332 332 330 335 335 334 334 334 334 333 331 327 328 324 320 318 318 316 312 308 306 305 305 307 302 300 300 300 301 300 298 297 297 297 297 295 294 293 292 292
283 284 281 284 282 282 287 292 288 291 292 290 289 284 283 289 290 289 288 290 289 289 288 288 290 291 292 293 293 294 295 296 297 300 304 306 309 311 312 314 317 318 319 319 319 319 320 321 322 324 326 326 327 326 326 325 326 328 330 331 332 333 334 334 334 334 334 333 331 329 327 322 319 319 317 313 310 306 304 305 307 302 300 300 300 300 300 300 299 298 297 297 297 294 292 291 291
286 282 283 281 283 283 284 287 290 289 291 290 288 289 285 288 288 287 289 291 291 291 290 289 290 292 293 293 293 294 294 296 297 298 299 302 306 309 311 311 313 316 318 319 320 320 320 320 321 323 325 325 327 326 324 324 324 325 325 328 327 331 332 333 333 333 332 333 332 330 329 326 321 321 318 315 312 308 305 306 306 302 300 300 300 300 300 300 299 299 297 297 296 294 291 290 289
282 284 283 284 282 281 283 287 290 291 289 289 288 288 289 292 293 292 292 291 291 291 292 292 291 291 292 292 293 293 294 295 297 299 299 299 301 305 309 310 311 313 317 318 319 319 319 319 319 319 321 323 324 324 321 320 320 320 319 321 323 327 330 331 332 331 331 331 331 331 330 328 323 323 322 318 314 309 306 307 304 301 300 300 300 300 299 299 298 298 296 294 295 294 293 291 290
286 286 283 280 284 284 284 284 285 290 288 289 286 288 289 291 290 292 293 290 290 291 289 290 291 292 292 293 293 293 294 295 298 298 297 297 298 301 305 309 310 311 313 316 316 317 318 317 317 318 319 321 321 320 318 318 316 318 318 313 314 320 325 326 327 330 330 330 329 329 329 329 326 324 324 321 318 312 308 307 304 301 300 300 300 299 298 298 297 296 295 294 293 292 291 290 290
286 283 281 283 282 284 285 287 289 287 288 287 286 286 286 290 291 293 293 290 289 288 290 291 292 293 293 293 294 294 294 296 297 296 297 298 298 298 301 305 308 307 310 313 315 316 317 318 317 317 317 317 319 319 317 318 317 314 314 316 318 316 319 321 323 325 327 329 328 329 329 328 327 325 324 322 319 312 310 307 304 301 301 300 300 300 299 298 298 297 295 294 292 291 290 290 290
287 283 283 282 283 286 286 289 288 287 289 284 283 285 286 288 290 291 291 288 290 291 290 291 292 292 293 293 294 294 296 293 294 294 295 294 296 297 299 304 305 307 309 313 314 316 317 317 317 318 316 316 318 320 319 318 319 320 319 317 311 307 312 317 320 320 322 322 325 326 327 329 328 327 324 324 320 315 311 307 304 302 301 300 300 301 301 298 297 296 295 293 293 292 289 290 290
283 285 282 283 284 283 287 288 287 288 289 284 282 285 289 290 290 291 290 291 292 292 292 293 292 292 292 292 293 294 293 294 292 294 293 293 294 296 299 303 306 309 309 312 314 314 313 314 316 316 316 316 317 318 317 318 316 315 315 308 314 303 301 306 311 311 316 318 319 322 324 327 329 328 326 323 320 315 312 308 305 303 302 301 300 299 299 297 297 296 295 293 292 292 290 290 290
282 282 283 282 283 286 284 285 286 287 286 287 285 286 289 288 287 289 292 292 290 289 289 290 291 292 293 294 293 293 293 293 294 294 295 293 292 295 296 301 305 307 307 307 311 313 314 313 315 315 315 315 316 315 314 313 310 304 302 302 303 306 305 300 303 306 313 313 316 316 318 321 325 328 326 324 322 317 314 309 306 303 301 301 300 299 298 297 297 296 295 294 293 289 288 289 291
283 280 280 282 285 284 282 286 286 282 286 283 283 284 286 280 282 283 284 284 288 290 290 290 292 292 293 292 291 292 292 292 293 293 293 292 293 296 299 301 301 304 306 308 311 313 315 314 315 315 315 314 314 311 311 307 305 304 302 302 302 303 302 302 303 306 310 312 314 314 316 315 317 318 323 324 321 319 315 311 307 304 302 301 301 299 298 298 297 297 296 295 293 291 288 289 289
285 283 283 283 283 285 286 283 285 277 281 281 283 280 275 277 280 282 284 283 285 284 285 288 290 290 290 291 292 291 292 291 293 294 293 292 293 295 296 297 301 303 305 308 310 313 313 313 312 311 311 310 310 309 309 308 309 309 306 308 306 303 306 300 306 309 308 310 313 314 313 313 315 317 318 321 321 318 314 311 308 305 303 302 301 301 300 300 297 297 296 295 293 293 291 288 288
283 286 284 285 285 285 283 284 281 280 280 283 281 280 276 279 282 285 284 284 288 288 286 289 290 290 287 289 290 290 292 294 291 291 292 292 293 294 295 297 300 303 305 304 305 309 310 310 310 310 310 309 308 307 307 308 308 308 309 311 312 311 311 308 302 302 307 308 311 312 314 312 313 315 316 318 318 316 316 312 308 306 304 303 301 301 300 299 298 297 297 296 295 294 292 290 289
284 283 284 285 286 285 284 282 283 280 279 282 278 275 277 280 283 283 282 283 286 286 289 290 290 288 287 286 288 289 292 291 291 292 293 293 293 296 298 299 300 303 301 302 304 305 308 309 308 308 308 307 306 307 306 309 310 307 307 307 308 308 309 310 305 304 302 303 306 310 311 312 312 313 314 315 317 315 313 311 309 307 305 304 301 301 300 299 299 298 297 297 296 294 293 293 291
284 285 285 284 284 282 281 281 280 280 281 281 278 283 281 277 281 282 282 285 284 287 289 289 289 289 288 286 287 289 290 289 290 293 293 292 295 296 297 297 298 299 301 304 305 306 307 306 305 305 306 305 304 305 306 306 308 307 308 307 306 305 306 305 301 300 301 299 302 303 307 310 310 310 312 313 313 314 312 312 310 307 306 304 301 301 301 300 299 297 296 295 295 294 294 294 293
287 284 285 283 283 281 280 279 281 278 279 274 278 281 276 278 279 279 279 283 284 287 288 287 286 287 288 288 287 287 286 287 289 290 291 292 293 294 295 296 297 299 299 299 301 301 302 301 303 303 304 303 303 303 304 304 304 304 305 304 306 305 301 298 298 300 300 298 301 301 302 305 307 308 308 310 311 313 312 311 310 308 306 305 301 302 301 300 299 298 297 295 295 294 294 294 294
288 286 287 283 280 279 278 277 276 277 272 274 277 279 279 277 280 280 283 284 284 284 285 285 284 288 290 286 287 287 289 289 289 290 291 291 291 291 294 297 296 297 296 297 299 299 299 301 301 302 302 300 300 302 303 304 304 304 305 305 305 305 302 300 299 299 299 297 300 300 299 300 301 306 307 307 309 311 312 310 310 309 308 304 302 302 301 300 300 299 298 296 295 295 294 294 293
288 284 279 284 281 278 277 272 275 273 267 272 277 278 279 275 276 281 282 283 283 285 287 288 287 289 291 289 289 290 288 289 291 292 293 292 295 294 294 296 296 296 296 296 296 297 297 299 300 300 299 299 299 301 301 303 303 303 304 304 304 304 303 302 302 302 300 300 300 300 298 298 299 300 302 306 307 309 310 310 309 309 307 306 303 303 302 301 300 299 298 296 295 295 295 293 293
283 282 283 276 272 269 273 266 274 271 270 279 278 278 279 279 283 284 285 287 287 285 287 287 287 289 290 289 292 291 290 289 291 291 291 292 294 294 294 294 294 295 297 297 297 296 296 297 298 300 299 298 299 300 301 302 302 303 303 303 303 302 302 302 302 302 300 301 300 300 299 300 299 299 300 302 306 307 308 309 309 308 307 306 304 303 302 302 300 299 298 297 296 295 295 294 293
283 285 278 273 270 268 265 259 262 266 273 277 279 281 279 279 282 289 290 293 289 285 285 285 286 289 290 288 290 291 290 289 289 288 288 290 290 290 292 293 294 294 294 296 295 295 296 297 297 299 300 298 298 299 300 301 301 302 302 302 302 302 301 301 301 302 300 300 300 300 301 301 300 301 301 302 304 306 307 308 308 309 308 307 305 304 303 302 301 300 299 297 296 296 295 294 293
284 281 283 279 268 266 265 264 271 271 273 275 276 276 273 276 284 287 287 289 287 287 286 286 286 287 287 287 287 288 289 289 288 289 291 292 292 291 292 292 293 294 294 295 295 296 296 297 298 298 298 297 298 299 300 300 301 301 301 301 301 301 301 301 301 301 301 300 299 300 300 300 301 301 301 302 302 304 307 308 308 308 308 307 305 304 303 302 301 300 299 298 297 296 295 295 293
282 279 280 278 276 274 272 266 267 266 269 270 274 277 277 282 284 286 286 286 286 286 285 284 285 284 283 287 289 289 290 291 290 291 292 292 292 291 291 291 292 293 293 293 295 296 297 299 298 299 300 299 298 298 299 300 300 300 300 300 300 300 299 299 299 298 299 299 299 300 300 300 300 300 300 300 301 303 305 306 307 307 308 307 305 304 303 302 301 300 298 297 296 297 295 294 294
283 283 278 279 279 279 271 270 272 271 269 274 270 278 281 281 283 288 288 286 289 286 285 285 286 284 283 287 289 286 288 290 291 292 293 294 292 291 291 291 292 292 293 296 297 298 299 299 298 298 298 297 298 298 299 299 299 298 299 299 299 298 299 299 300 299 299 299 299 299 300 299 299 299 300 300 302 302 304 305 306 306 307 307 306 304 303 302 301 299 298 297 296 296 295 294 294
284 279 281 282 283 280 277 272 265 263 269 272 273 276 277 276 280 281 283 286 287 287 288 286 285 284 285 289 288 287 288 290 290 291 292 293 293 293 292 292 293 294 294 294 296 296 296 297 298 298 297 298 297 297 297 298 298 298 298 298 298 299 299 299 299 299 298 298 298 298 298 298 298 299 300 301 302 302 303 302 305 305 306 306 305 304 303 302 300 299 298 298 297 297 295 295 294
283 281 284 285 278 277 277 271 270 266 265 267 271 273 274 278 280 279 283 283 284 285 288 287 288 288 288 288 287 288 286 286 287 289 291 293 295 295 294 294 294 294 294 294 294 296 297 296 296 298 299 299 299 298 297 297 297 298 298 298 298 298 298 298 298 298 298 298 298 298 298 299 299 299 300 301 301 300 301 301 302 303 304 304 304 302 301 300 300 299 298 297 297 296 295 294 294
287 286 284 284 280 276 274 276 270 273 267 263 269 267 279 279 280 282 286 283 283 282 283 285 286 287 288 286 289 290 290 289 289 289 289 292 293 294 295 295 295 295 294 294 294 294 296 297 296 297 296 296 296 297 296 297 297 297 297 296 296 297 297 298 298 297 298 298 298 298 298 298 299 299 299 300 300 298 298 299 300 301 301 302 302 301 300 300 298 298 297 296 296 295 294 294 293
283 283 282 285 280 282 278 278 274 274 264 263 266 271 275 277 281 283 286 285 285 285 287 287 288 287 286 286 288 290 289 289 289 290 290 290 292 293 293 293 294 292 291 292 294 295 295 295 296 296 297 297 297 297 296 297 296 296 296 296 296 296 296 297 296 297 297 298 298 297 298 298 297 297 298 298 298 298 299 299 299 299 300 300 300 300 299 298 297 296 296 296 295 295 294 294 294
287 286 284 286 281 277 275 275 277 269 271 269 264 273 278 279 282 284 285 286 286 284 286 287 285 285 286 288 288 287 288 289 288 290 289 290 290 289 289 289 289 290 293 293 293 293 293 295 297 296 296 298 298 297 297 296 295 296 295 296 295 295 296 295 296 295 296 296 296 296 296 294 295 296 297 298 298 298 298 298 298 299 299 299 299 301 297 297 296 295 295 296 296 295 294 294 293
Wind_Speed
5 3 2 2 4 3 2 6 2 2 3 0 2 1 3 0 1 1 2 1 1 1 1 1 1 3 2 3 7 4 1 8 5 8 4 1 1 8 7 6 8 8 7 4 3 3 4 7 8 11 13 13 12 12 12 13 13 13 13 13 13 13 13 13 13 14 14 14 14 15 15 15 16 14 15 17 17 18 18 17 16 15 16 18 18 18 18 18 18 18 20 20 19 19 20 20 20
1 3 4 2 1 2 1 2 3 2 6 2 2 1 1 1 1 4 6 2 2 1 1 6 7 7 9 11 8 4 3 3 3 0 1 1 4 4 4 8 10 10 7 4 3 4 5 6 8 11 13 13 12 12 13 13 13 13 13 13 13 13 13 13 14 14 14 14 14 14 14 14 15 16 15 16 17 18 18 18 17 15 16 18 18 18 18 18 18 18 19 20 20 20 19 19 19
3 3 4 3 3 4 2 4 1 1 6 2 3 5 1 2 4 4 3 4 4 6 4 4 4 3 1 1 3 2 1 2 2 0 2 2 10 5 5 7 8 8 7 3 3 4 4 6 10 12 13 13 13 12 12 12 12 12 13 13 13 13 13 13 13 13 13 13 14 14 14 13 13 13 14 15 17 17 18 18 16 14 17 17 17 17 17 17 17 18 19 20 20 19 19 19 19
2 4 3 3 2 4 1 3 4 8 4 6 0 2 2 5 5 4 2 2 5 2 0 1 3 1 1 5 2 1 3 2 0 2 5 5 3 6 7 8 7 6 6 3 3 4 3 6 10 12 13 13 13 12 12 12 12 12 12 12 13 13 13 13 13 12 12 13 13 14 16 14 14 14 15 16 17 18 18 17 15 15 18 17 17 17 17 17 17 17 17 18 18 18 18 19 19
2 1 2 2 3 1 2 0 4 3 4 5 6 3 3 4 5 3 1 1 2 1 0 1 3 4 0 4 0 0 3 0 0 3 2 1 2 7 8 8 8 9 7 4 4 3 3 8 10 11 13 13 13 13 12 12 12 12 12 12 12 12 12 12 13 12 12 12 12 13 14 14 16 14 16 18 18 18 18 16 15 15 17 17 18 18 17 17 16 17 17 18 19 19 19 19 19
3 1 3 1 0 2 5 1 1 3 6 5 3 4 4 6 6 5 1 1 2 1 2 1 3 4 1 1 1 2 2 4 2 0 3 3 8 8 9 8 8 9 7 5 4 3 3 7 9 11 14 14 14 13 13 13 12 12 12 12 11 11 12 12 12 12 12 11 12 13 13 13 14 15 17 16 16 18 18 16 15 15 16 17 17 17 17 16 16 17 18 18 19 18 18 18 18
1 4 3 4 2 4 3 2 4 3 1 6 2 3 7 5 4 4 2 2 0 1 1 1 3 4 4 1 1 0 0 2 1 2 4 4 9 9 9 8 8 10 7 6 4 4 4 7 10 12 12 12 14 14 14 13 13 13 12 12 11 11 11 12 12 12 11 12 12 13 13 14 14 16 17 16 17 18 17 16 15 15 16 16 16 16 16 16 17 16 17 18 18 18 18 17 17
2 2 1 1 0 2 2 1 2 3 0 4 2 5 5 6 4 3 4 3 2 1 1 1 0 4 1 3 2 2 5 1 2 0 6 8 8 9 8 8 9 10 9 6 5 5 6 8 10 11 11 12 12 13 14 14 14 13 13 12 11 11 11 11 12 11 11 11 11 13 14 13 14 15 16 16 17 17 16 15 15 15 15 17 16 16 16 16 17 16 18 18 18 17 18 17 17
4 5 0 4 1 3 2 1 1 2 3 1 2 2 3 4 4 5 2 1 1 0 2 2 2 3 3 1 1 2 4 3 0 5 8 9 10 9 7 8 9 9 9 8 6 6 4 7 9 10 10 11 11 13 14 14 13 13 13 12 12 11 11 11 11 11 11 11 11 12 13 13 14 14 14 14 15 16 16 15 15 15 15 16 16 16 15 15 16 17 17 17 17 17 16 17 17
2 2 1 2 2 1 2 1 3 1 1 2 4 5 5 4 3 0 4 2 1 3 1 0 1 1 3 3 1 1 1 4 2 7 6 8 8 7 7 8 8 10 10 8 7 6 5 7 8 10 10 11 11 13 13 13 13 13 12 12 12 12 11 10 11 11 11 11 11 11 11 11 12 13 13 13 13 14 16 15 15 15 16 16 15 15 15 15 16 17 17 17 17 17 17 17 17
0 5 2 2 4 2 2 2 3 1 0 2 2 2 1 3 4 2 0 3 1 2 1 2 3 3 3 1 1 3 2 1 5 9 6 8 7 7 7 6 7 8 9 8 8 6 5 4 9 9 10 11 10 11 11 11 13 13 12 12 11 11 11 10 10 10 11 11 11 11 12 12 12 12 12 13 13 14 14 14 14 14 15 17 16 15 16 16 17 17 17 17 18 17 17 18 18
1 1 1 3 2 6 5 4 1 2 2 1 1 1 2 5 2 3 1 6 1 1 2 4 2 5 3 1 1 2 4 1 4 7 6 6 7 7 7 5 7 6 8 8 7 6 5 5 5 7 10 10 9 10 10 10 11 12 12 13 12 11 11 11 11 11 11 11 11 10 12 12 12 12 12 12 12 12 13 14 14 14 14 16 15 15 16 16 17 17 17 17 17 17 18 18 18
3 1 5 4 0 1 2 3 2 1 1 3 4 1 3 4 4 6 4 3 1 3 1 4 5 2 2 2 2 4 1 4 2 5 6 7 6 6 6 6 7 7 7 7 8 7 6 6 5 5 6 9 8 9 10 10 10 11 12 13 12 12 12 12 12 11 11 11 11 10 11 10 10 11 11 11 11 12 14 14 14 14 14 15 15 15 16 16 17 18 18 18 17 17 18 18 18
4 6 6 1 1 4 5 3 1 4 3 3 1 0 5 3 4 6 7 5 2 3 2 2 5 4 1 1 1 2 5 4 3 3 4 6 6 6 7 6 7 7 7 8 8 8 6 6 6 5 5 5 5 7 9 9 10 11 11 11 11 11 11 11 10 9 9 9 8 8 9 10 10 10 10 11 11 11 12 12 14 14 14 14 14 15 16 17 18 18 18 18 18 18 18 18 18
1 2 5 5 1 2 1 5 9 5 5 3 3 6 2 3 3 4 8 7 4 3 1 0 2 1 4 6 3 7 9 7 5 3 4 5 7 7 6 6 6 6 6 8 7 7 7 6 6 5 4 4 5 5 4 7 10 10 10 10 10 11 10 10 10 9 9 9 9 9 10 10 9 9 9 10 10 10 9 11 13 13 14 15 15 15 16 16 17 17 18 18 18 18 18 17 17
4 5 3 1 1 4 3 1 2 3 4 5 1 4 4 1 1 6 4 2 2 1 0 2 2 1 1 6 2 8 10 7 5 5 6 7 5 6 7 6 5 6 6 7 7 7 7 7 6 6 6 5 5 5 5 5 8 10 10 10 10 10 10 10 9 9 10 10 10 10 10 8 8 7 10 7 9 9 9 9 11 11 13 14 14 15 16 16 16 17 18 17 17 17 17 17 16
2 3 1 3 1 2 2 3 6 4 2 4 1 5 5 2 1 1 1 1 7 1 2 1 1 1 3 3 1 3 8 7 6 7 7 6 7 6 5 5 5 5 4 6 8 7 7 7 6 6 6 6 6 5 5 6 7 9 8 10 10 10 10 10 10 10 9 9 10 10 9 6 5 5 5 5 8 6 9 10 10 11 13 13 14 15 16 17 17 17 17 18 18 17 16 16 15
1 1 5 0 1 3 5 6 9 1 6 5 5 6 7 3 0 1 1 5 3 1 2 3 2 1 3 5 2 4 9 10 8 10 8 7 7 6 7 7 7 8 7 6 5 7 7 7 8 7 5 6 7 5 4 5 6 8 6 5 5 7 8 9 8 6 6 5 8 8 6 5 5 4 4 5 5 6 7 11 10 10 12 11 12 15 16 16 16 17 17 17 16 14 13 8 8
3 2 2 4 4 3 6 3 6 3 3 7 6 4 6 5 7 2 3 1 1 2 0 2 2 3 4 3 4 9 11 8 8 9 10 11 9 10 9 7 8 7 8 7 7 7 7 8 7 9 7 7 6 6 5 6 7 6 7 6 5 6 7 6 6 6 5 5 4 5 5 5 5 4 4 4 4 8 9 11 10 9 10 10 12 15 16 16 16 16 16 15 15 13 8 7 6
1 4 2 3 7 2 3 3 4 4 4 5 5 2 3 3 2 1 2 4 1 7 4 1 2 3 1 2 4 7 9 8 7 9 11 10 9 11 10 9 8 10 10 9 9 7 7 7 9 8 9 8 7 6 6 6 6 6 6 6 5 5 5 5 5 6 6 5 6 5 5 5 5 5 6 8 7 6 8 10 11 12 11 12 12 9 12 14 16 15 15 13 9 6 6 6 6
1 2 4 3 4 2 3 4 4 4 4 4 5 2 2 1 3 2 4 5 3 5 6 9 9 7 6 5 6 7 9 9 7 7 9 10 8 7 10 11 13 11 9 7 7 9 9 9 9 9 8 7 8 7 7 6 6 6 5 6 6 5 5 5 5 5 5 6 6 5 5 5 5 5 5 4 5 5 6 6 6 5 5 6 9 7 7 7 7 7 7 7 6 6 7 6 5
3 1 1 1 2 0 2 4 3 2 4 6 3 8 4 1 0 3 9 7 7 9 9 9 7 10 11 11 9 6 9 10 10 10 12 12 13 12 9 7 5 4 5 8 10 8 10 9 9 8 8 8 8 7 8 9 7 6 6 6 7 6 6 5 5 5 5 5 5 5 6 6 5 6 5 4 4 5 5 5 6 5 5 5 5 6 6 6 6 6 6 7 6 6 6 6 5
2 1 1 3 2 0 0 0 1 5 5 6 6 4 3 4 1 1 7 9 5 6 4 8 6 12 11 10 12 10 10 11 12 14 13 12 11 11 11 9 10 9 8 9 8 8 9 9 10 8 9 8 9 7 7 7 7 6 6 6 8 7 6 6 6 5 5 5 5 6 7 6 5 5 6 5 4 3 5 5 5 5 5 5 4 6 6 5 6 6 6 6 5 6 7 6 6
4 3 0 1 2 1 2 1 1 2 11 6 3 2 2 3 4 1 4 6 5 2 3 2 5 5 8 12 11 15 16 16 17 16 15 17 17 17 15 13 11 6 6 9 8 8 9 11 11 10 9 9 8 8 8 6 7 7 7 7 7 8 7 7 6 6 5 5 5 6 5 6 7 6 5 6 5 3 4 4 5 5 5 5 4 5 7 5 6 6 6 6 6 6 7 6 6
2 1 1 1 1 1 2 1 4 3 3 1 4 5 0 2 1 1 6 8 7 4 2 4 8 9 6 9 13 10 9 9 10 10 7 7 7 5 3 5 5 5 9 9 9 9 10 10 11 12 10 11 8 8 8 8 7 7 7 7 7 8 7 7 7 6 6 5 5 6 6 6 5 6 6 6 5 5 4 4 4 5 5 5 5 5 6 6 6 6 6 6 6 6 6 6 6
2 1 4 1 1 2 2 2 4 3 1 2 5 0 2 1 2 3 8 7 2 2 4 5 7 8 10 11 13 12 12 14 12 9 14 10 4 5 8 7 7 10 12 10 8 9 9 10 11 12 12 11 10 9 8 8 8 8 8 8 7 8 7 7 7 6 6 6 6 6 6 6 7 7 7 6 7 7 6 4 5 5 5 5 5 6 5 6 7 6 6 6 6 6 6 5 6
3 4 3 5 1 1 4 1 2 1 2 1 4 1 0 3 1 6 2 4 1 4 4 2 8 10 10 8 9 9 11 14 15 12 4 4 6 9 11 7 9 12 9 11 10 9 8 10 11 11 11 10 9 10 9 9 9 8 8 8 7 8 8 7 7 7 6 6 7 7 6 6 7 6 7 8 6 7 6 6 6 5 6 5 5 6 4 6 5 6 6 6 6 6 6 5 5
5 8 4 6 5 2 1 3 1 1 1 2 3 1 0 2 1 8 1 3 1 6 3 5 5 7 9 9 9 9 10 11 7 5 12 11 12 13 13 13 15 11 12 14 12 9 8 11 12 11 10 10 10 10 9 9 9 9 9 8 8 8 9 8 8 7 7 7 8 8 8 7 7 7 8 8 8 8 7 7 6 6 6 5 5 6 6 5 6 6 5 5 5 6 6 5 4
3 2 2 3 5 1 3 3 0 1 0 0 0 1 2 0 7 3 1 3 1 5 5 5 5 5 5 6 7 6 12 9 5 8 13 14 12 10 14 14 13 12 11 12 10 9 12 10 10 11 10 10 11 11 9 9 8 8 9 9 8 8 9 8 9 9 8 8 8 9 8 8 7 8 8 9 9 8 8 8 7 6 6 6 6 6 7 6 6 6 6 5 6 6 7 6 5
1 6 4 3 2 2 1 1 1 1 1 1 0 2 7 9 12 2 0 4 3 1 4 5 5 5 4 5 6 8 8 5 8 13 12 11 10 10 13 13 11 11 10 7 7 12 11 8 8 8 10 11 12 10 9 8 9 8 8 8 7 8 8 8 8 9 9 9 8 10 9 9 8 7 8 9 8 8 9 8 8 7 7 7 7 7 7 6 7 7 7 6 6 6 7 5 5
4 1 4 1 1 3 2 0 0 4 0 1 1 3 6 4 2 3 4 2 4 5 7 6 6 5 5 5 5 8 10 9 13 13 12 11 9 8 12 9 9 10 7 7 12 13 9 10 8 8 10 10 10 11 10 9 8 8 8 9 9 7 6 9 8 7 9 10 9 9 10 9 9 9 8 8 9 9 9 8 8 7 7 8 8 7 8 6 7 8 7 8 6 6 6 5 5
2 4 2 1 3 3 4 1 3 4 0 4 3 0 7 8 9 5 2 1 5 6 6 7 6 5 5 5 6 8 11 9 10 10 11 11 10 10 11 13 10 10 12 12 9 7 10 10 9 10 9 11 11 11 9 8 9 8 6 6 8 10 9 7 7 8 8 8 9 10 11 10 10 10 10 9 8 8 9 10 9 8 9 8 8 8 8 8 7 7 5 8 9 6 7 6 5
4 2 1 2 1 3 3 0 1 1 1 3 2 4 4 3 2 2 3 3 3 3 5 5 7 7 7 6 7 7 8 9 9 11 13 12 11 11 11 11 11 13 11 10 10 9 9 10 11 12 12 13 11 10 9 7 7 8 7 6 6 7 8 9 8 8 9 10 8 8 11 12 13 12 11 10 8 8 8 7 7 10 10 9 10 9 9 8 9 8 7 4 6 8 8 8 6
3 2 1 3 3 1 1 3 0 1 1 3 4 1 5 5 7 5 5 3 1 2 5 6 6 7 7 6 6 8 8 9 12 12 14 13 12 11 12 11 11 10 9 11 10 12 13 11 11 12 11 10 10 10 9 8 7 7 6 7 6 7 7 6 7 7 7 8 10 11 9 8 8 9 11 12 10 9 9 9 8 8 8 7 7 10 10 9 8 9 9 6 6 7 8 9 7
6 2 1 1 1 2 2 2 1 0 2 2 1 2 10 11 10 9 7 1 2 6 6 6 5 6 7 7 8 8 9 11 16 12 10 9 11 11 11 11 10 9 9 10 10 9 8 8 9 10 10 10 9 8 7 6 5 5 6 6 6 7 7 7 6 6 6 5 6 8 12 12 11 9 8 9 8 10 9 7 7 9 8 8 7 5 8 10 9 8 9 8 5 4 8 8 8
8 9 6 4 5 4 2 3 2 2 1 2 3 6 8 10 8 9 10 1 2 7 5 5 8 8 8 8 8 8 10 14 15 8 6 6 8 9 10 9 9 7 7 7 8 8 9 7 7 8 9 9 7 6 6 6 6 7 7 4 6 7 6 6 5 7 6 6 5 5 6 9 11 12 11 10 8 6 8 9 9 9 8 9 9 9 8 10 13 11 9 11 9 7 4 7 9
5 4 5 4 4 1 2 2 1 0 1 4 4 5 6 11 10 11 11 4 4 6 9 10 9 9 8 9 10 11 11 16 4 4 7 8 8 8 8 6 6 5 5 7 8 9 10 12 10 12 9 7 8 8 8 8 9 5 5 8 10 6 6 4 5 5 6 6 6 7 7 5 8 10 9 9 9 9 7 9 11 11 9 10 10 11 11 12 12 12 10 9 13 10 6 6 7
7 6 5 1 1 2 1 1 2 3 2 1 1 1 8 12 12 12 9 3 10 10 10 11 12 11 10 9 12 13 14 5 5 6 7 5 5 5 5 6 6 7 10 9 12 14 12 10 11 11 8 9 10 11 10 9 10 10 10 9 6 5 5 7 7 4 5 4 6 6 6 7 8 9 10 10 10 12 11 11 11 10 11 11 10 9 7 6 8 10 12 9 6 12 10 10 9
3 6 4 4 2 2 2 1 2 3 1 5 1 4 9 11 11 12 9 12 9 8 10 11 9 10 10 10 12 15 8 10 6 9 6 5 5 5 5 6 7 11 9 11 10 7 7 8 10 9 9 10 10 10 9 10 7 6 6 4 7 3 1 1 2 2 3 4 4 6 7 7 8 7 10 10 8 7 6 9 10 11 9 10 11 10 10 11 11 14 15 14 10 4 6 9 12
6 5 4 5 2 2 1 3 1 3 1 2 2 6 11 7 7 12 14 8 6 5 6 9 8 12 14 15 10 8 10 10 10 9 10 5 4 5 5 6 10 9 7 6 7 10 9 9 9 10 10 10 9 10 10 6 5 3 2 3 3 3 4 3 2 0 2 3 5 4 4 5 7 9 8 9 10 11 12 12 10 11 12 11 12 13 14 14 12 12 12 13 14 12 8 10 10
2 3 3 4 2 2 2 2 0 0 1 2 3 5 9 3 4 5 3 2 3 6 5 8 11 11 12 9 8 7 10 7 9 9 7 7 5 7 10 9 5 7 9 10 10 11 10 13 13 12 10 10 8 7 7 6 6 4 4 4 4 4 4 3 3 2 5 4 4 5 7 4 5 4 6 11 12 13 12 12 13 12 12 12 10 11 13 16 17 16 17 15 16 15 12 9 11
1 3 5 4 5 5 0 2 2 4 2 3 3 3 4 3 6 8 11 6 4 2 3 8 10 8 6 9 11 5 7 6 9 11 9 7 7 7 5 5 6 7 9 11 9 9 8 8 7 7 6 6 7 7 8 8 9 9 7 6 5 4 5 4 9 10 7 7 9 5 5 6 6 7 6 7 10 12 10 9 9 11 12 10 10 9 9 7 11 13 15 14 16 15 17 14 13
3 3 3 3 7 6 5 3 2 1 1 2 3 1 7 6 4 4 5 6 11 8 5 12 12 8 4 7 6 5 7 9 7 7 8 7 7 5 5 6 7 8 10 4 5 6 6 6 6 7 7 6 6 7 8 8 7 7 10 11 10 11 11 8 5 5 7 6 5 6 7 6 7 8 7 7 5 7 13 15 13 11 11 12 13 12 12 14 14 15 13 12 13 11 12 15 18
3 1 6 7 7 6 4 4 1 1 1 3 4 3 2 9 8 5 4 4 9 9 12 11 8 6 6 7 7 6 8 7 5 7 7 5 5 6 9 8 6 7 3 4 5 5 8 9 8 8 6 7 6 7 8 9 10 8 8 7 8 8 10 10 8 7 5 5 6 7 6 7 7 6 6 4 6 8 5 8 13 13 12 11 10 11 14 14 12 11 14 14 10 10 14 15 15
2 2 6 3 5 4 5 5 5 0 2 7 3 0 1 6 9 4 3 5 6 10 11 10 8 9 8 7 8 8 8 5 5 7 6 5 6 6 6 5 3 3 5 7 8 7 6 5 5 5 6 5 5 7 8 7 7 8 9 8 8 8 8 6 4 3 5 5 5 5 7 6 5 5 5 4 4 5 9 10 9 11 12 11 11 11 10 10 14 15 13 11 12 11 11 9 11
1 7 7 7 7 6 4 4 4 1 1 5 2 2 3 9 6 6 2 1 7 11 9 8 6 7 10 10 6 6 5 5 5 6 6 5 4 4 4 2 3 5 4 3 3 3 4 4 5 5 5 5 5 6 6 6 6 7 7 8 10 8 5 3 3 5 5 5 7 6 5 6 5 4 4 4 4 5 7 8 10 12 13 12 11 11 10 11 11 11 15 17 15 14 11 11 14
9 5 8 7 9 5 3 7 2 3 1 6 5 3 2 5 6 5 3 4 5 4 5 4 6 7 8 5 6 5 4 4 3 3 4 5 4 3 1 4 2 1 2 3 3 3 4 4 4 5 4 4 4 6 7 8 7 7 9 9 10 9 7 6 6 7 5 5 7 6 6 6 5 6 5 5 6 5 6 8 9 10 10 11 11 12 13 12 12 13 11 11 12 16 12 13 11
6 4 4 5 4 6 4 5 5 1 5 4 1 2 1 7 6 5 8 6 4 4 5 7 8 9 10 7 7 5 4 3 2 0 1 1 0 0 1 3 1 2 1 3 3 3 4 4 4 4 4 5 5 5 6 7 8 8 7 8 9 9 8 8 10 10 8 9 8 7 6 6 6 5 5 6 6 6 5 6 8 9 10 10 11 11 11 11 11 11 11 12 13 14 13 13 12
5 7 7 7 2 4 2 4 1 5 5 1 2 2 2 11 11 6 10 10 9 6 8 6 5 8 9 7 7 5 5 4 3 2 2 1 1 2 3 3 2 2 4 4 4 4 3 4 5 6 6 5 6 6 8 8 8 9 9 8 8 7 7 8 8 8 6 8 7 7 6 7 5 6 7 7 7 6 6 6 8 9 9 10 11 11 11 11 10 10 11 12 12 14 14 14 13
4 7 6 5 1 1 2 3 1 6 6 4 1 1 5 3 8 13 18 18 2 3 7 7 5 7 9 7 6 7 6 5 4 3 4 4 4 4 3 3 4 4 4 4 3 4 4 4 5 6 7 6 6 6 8 8 9 8 7 8 8 7 8 7 8 8 7 7 7 8 9 8 8 9 7 9 7 7 8 7 6 9 9 9 10 12 12 12 12 11 12 13 14 12 11 13 13
6 1 7 8 8 5 4 4 5 5 4 2 4 1 6 4 1 1 7 8 8 7 6 5 6 8 8 8 8 6 5 4 4 4 5 7 7 3 2 3 4 4 4 4 4 4 5 5 7 7 6 6 7 8 7 9 8 8 7 7 7 6 7 7 7 7 7 7 7 8 8 7 8 7 8 7 6 8 9 10 9 8 10 10 10 11 11 12 12 11 11 13 13 12 14 13 13
0 2 5 5 6 6 1 4 2 0 2 2 1 6 4 4 3 9 6 7 7 5 4 2 6 5 3 6 6 2 4 4 4 5 7 8 6 4 4 4 4 4 4 4 5 6 6 8 7 8 9 9 9 8 8 8 8 7 6 7 7 6 5 5 5 4 5 6 7 8 8 7 7 6 6 5 6 8 9 10 10 10 9 10 11 12 12 11 12 12 11 11 13 9 11 13 12
4 4 3 4 2 9 6 1 1 1 3 8 2 8 6 7 6 10 9 6 10 6 6 5 6 6 5 6 6 4 5 5 5 5 6 7 5 3 4 5 4 4 4 5 6 7 8 8 7 8 7 5 7 8 8 7 7 6 7 6 5 6 6 7 8 7 7 6 6 7 7 7 6 6 6 6 7 7 8 9 10 10 10 9 10 11 12 11 11 12 12 12 13 11 11 14 13
8 1 7 1 2 4 5 3 2 3 3 7 2 8 5 3 8 5 2 2 8 8 9 6 5 5 5 7 4 3 4 4 5 6 7 7 6 6 5 5 5 5 4 4 4 4 3 3 5 7 6 8 8 8 9 8 8 8 7 7 6 7 7 7 6 7 6 6 6 6 6 6 7 7 7 6 7 7 7 9 9 9 9 10 11 10 12 12 11 11 12 12 12 11 12 11 12
3 3 3 6 4 1 1 4 1 1 2 6 4 2 5 7 8 3 2 1 5 9 10 7 7 6 6 6 1 5 4 4 5 5 6 7 7 7 6 7 5 5 5 4 4 4 4 4 4 5 8 9 9 8 7 6 7 7 7 7 7 7 7 6 6 6 6 7 8 7 7 8 6 6 7 7 7 7 7 7 8 8 8 9 9 9 9 10 10 11 11 11 11 11 11 12 12
1 3 4 0 2 2 4 6 3 5 4 2 8 3 7 6 7 9 8 6 3 5 5 6 6 8 6 6 7 8 10 8 6 5 4 7 7 6 7 7 7 6 5 4 4 3 5 5 5 6 5 5 5 6 6 8 8 7 7 6 6 7 7 7 7 7 8 8 8 8 7 7 8 7 7 7 7 7 7 8 7 7 7 6 8 8 9 10 9 10 11 10 10 11 12 13 12
3 2 2 1 1 1 4 1 3 4 5 5 2 7 6 6 7 8 11 8 8 7 7 7 6 5 6 4 6 7 6 6 6 5 5 6 7 6 6 6 6 5 4 4 4 5 5 4 5 5 7 7 8 7 6 7 6 8 7 9 8 7 8 7 7 8 8 9 8 8 8 8 6 7 7 8 8 8 7 7 8 8 9 8 8 8 8 8 9 10 11 11 10 11 12 12 11
11 12 12 12 9 4 5 8 3 1 3 4 2 10 6 6 2 8 8 10 9 4 1 2 4 5 5 7 7 5 6 6 5 6 5 4 5 4 5 6 4 4 6 5 4 4 5 6 7 6 6 8 8 8 8 6 6 6 8 8 9 7 8 6 8 8 9 8 7 8 8 6 8 8 7 8 8 8 7 7 8 9 9 9 8 9 8 8 10 11 11 9 10 11 12 12 11
Wind_Direction
296 348 345 71 57 89 47 1 145 317 62 207 108 84 192 48 212 87 136 356 85 264 234 37 62 73 196 200 174 147 227 135 196 133 211 234 270 144 138 131 129 134 144 154 154 143 140 141 144 133 128 124 121 115 110 105 103 101 98 97 97 97 96 94 91 89 90 94 103 107 97 94 94 93 94 91 90 91 89 84 82 87 93 93 92 87 84 82 81 79 83 86 87 85 83 81 79
318 19 47 29 47 57 265 121 103 3 39 63 242 101 239 297 75 185 168 177 198 116 128 110 88 87 63 86 123 138 35 3 188 158 253 268 117 118 136 138 142 144 147 146 140 134 136 146 144 138 133 130 125 119 114 111 107 104 103 103 101 99 98 96 96 97 96 95 89 90 95 97 95 101 99 92 90 88 88 89 90 95 98 94 90 89 84 82 82 83 86 87 90 89 89 86 82
27 44 49 31 31 75 84 32 278 35 114 184 258 206 340 132 180 211 214 172 161 149 155 95 100 68 40 19 24 24 228 334 97 104 69 136 129 190 148 139 140 141 142 136 132 130 133 147 150 145 138 133 128 124 119 114 111 108 104 102 101 102 101 99 99 100 99 98 99 101 98 93 91 88 95 100 95 93 91 89 93 101 97 95 92 87 84 84 85 85 88 89 88 85 83 82 80
82 28 152 74 252 30 60 31 92 129 140 204 290 268 182 181 214 203 227 210 155 113 243 33 55 270 105 53 148 90 64 102 233 158 135 180 213 145 143 138 134 136 134 131 128 132 138 156 150 147 141 136 131 128 123 117 115 112 108 105 104 106 105 104 102 102 102 100 95 91 86 87 80 81 86 91 101 99 92 92 98 101 99 97 95 91 87 86 86 87 91 93 89 86 83 82 82
62 357 88 110 107 3 104 124 139 93 171 192 176 267 252 211 185 194 218 240 262 258 309 126 73 340 180 131 117 104 216 57 146 146 148 204 140 138 135 134 135 143 148 143 129 136 156 156 151 147 144 141 137 132 127 122 118 115 112 110 108 107 108 108 107 107 108 107 104 97 95 93 85 88 93 94 95 97 97 100 103 102 102 99 91 86 85 87 87 88 94 94 88 84 83 82 81
57 51 356 92 6 159 57 78 55 176 220 144 126 225 220 204 172 181 177 265 254 230 195 75 163 191 16 328 190 107 184 114 198 280 152 213 143 138 138 136 138 148 153 144 139 148 165 164 152 152 148 145 140 137 132 129 126 122 120 116 113 112 112 111 112 112 109 103 97 96 100 97 91 90 90 92 95 100 101 103 102 103 103 98 91 87 86 85 88 87 90 92 90 88 87 87 85
242 48 355 27 35 51 186 136 197 189 232 159 190 214 187 203 215 128 124 82 297 42 131 175 137 93 72 300 17 135 222 213 95 205 154 156 134 137 140 141 140 151 153 156 147 161 171 171 158 154 149 147 144 142 138 135 132 129 125 122 120 120 118 118 117 117 113 108 106 107 107 95 93 93 97 100 100 96 98 101 103 103 103 99 93 90 88 87 89 89 90 90 91 92 90 88 86
50 131 310 107 230 45 45 170 201 167 45 180 224 164 194 193 158 146 165 104 200 143 8 169 90 101 258 11 151 269 354 154 238 165 122 133 136 140 142 142 145 152 159 157 159 163 175 176 165 151 153 149 147 147 141 139 136 134 130 129 127 126 127 124 123 120 118 113 109 109 106 107 106 103 104 103 97 99 99 100 102 103 104 102 99 92 87 87 90 93 94 94 92 92 91 91 90
357 88 275 70 65 17 59 90 263 217 291 225 258 287 173 172 151 134 139 249 47 114 144 202 231 88 231 49 110 277 303 318 63 138 131 134 143 147 146 148 149 155 158 160 162 166 171 182 166 156 154 151 154 151 146 142 140 137 135 133 134 132 131 128 126 124 121 117 112 112 114 115 114 107 104 104 104 101 102 103 105 106 107 106 98 92 90 90 93 97 98 96 96 95 96 91 89
30 57 290 117 126 44 20 308 86 187 242 232 178 182 164 176 171 82 148 100 183 128 237 328 123 99 142 114 43 354 51 345 137 110 139 143 144 145 148 153 152 152 156 160 161 169 167 180 165 158 156 156 158 155 148 144 142 140 137 137 136 135 132 130 129 128 125 121 118 114 110 106 112 117 114 110 108 106 106 105 107 111 112 109 101 96 92 90 93 98 99 100 98 96 93 91 88
23 14 141 79 23 103 166 231 280 317 311 338 295 252 221 119 118 128 270 163 22 147 236 230 30 128 91 251 204 251 295 317 156 151 157 151 147 147 147 150 151 153 155 158 162 167 168 173 166 161 158 161 162 156 149 148 147 144 141 140 138 137 136 134 133 130 128 125 122 120 117 114 108 111 114 113 111 108 105 107 111 113 115 108 103 98 92 90 94 98 100 99 94 92 89 89 87
37 41 26 107 177 156 223 163 264 267 298 356 236 149 191 137 89 120 157 125 232 103 178 145 211 148 61 32 297 305 333 174 193 149 149 147 152 152 146 143 151 159 156 157 159 164 166 162 163 168 163 164 165 156 150 153 152 148 146 145 144 142 141 139 135 134 131 129 124 121 120 118 116 114 115 112 112 112 112 112 117 115 118 112 101 95 88 87 93 99 101 99 96 93 88 82 81
113 107 84 90 222 141 191 117 226 300 349 273 187 201 125 110 182 179 171 106 100 124 308 224 130 89 125 182 257 311 215 215 200 140 145 151 153 145 141 146 157 156 157 156 162 167 166 163 161 167 167 167 162 155 155 156 152 152 150 149 147 145 143 142 140 137 133 131 128 122 115 111 111 114 113 113 112 114 116 114 118 121 118 114 99 95 89 89 94 99 101 100 92 85 82 80 76
115 178 128 196 61 124 139 175 5 150 256 246 265 138 157 148 241 170 126 126 203 164 249 182 144 133 95 27 297 255 226 203 169 135 126 140 140 141 149 150 155 160 161 163 169 169 167 167 165 167 165 166 159 156 161 158 154 154 152 149 147 144 145 143 141 135 134 125 110 101 103 107 108 110 110 112 116 114 114 115 119 121 119 119 104 95 90 94 97 97 94 92 88 83 81 79 75
120 141 82 116 73 125 242 128 196 164 228 184 202 136 177 271 123 150 155 148 235 211 329 90 174 101 229 151 268 206 195 192 152 132 119 122 140 146 148 151 155 161 166 171 170 170 172 167 169 166 156 150 156 156 160 161 158 155 151 149 146 144 141 137 137 134 119 111 103 97 99 98 97 97 99 99 102 108 110 111 115 120 122 122 110 99 94 96 98 97 97 93 86 84 80 77 75
137 85 80 111 161 140 229 119 56 105 246 171 218 142 115 333 207 137 254 143 171 2 22 200 31 208 219 160 231 190 180 156 133 126 115 113 133 144 149 152 148 163 171 175 174 180 175 173 171 168 166 157 162 155 163 161 161 154 152 150 147 143 138 136 129 122 119 113 106 102 98 94 89 89 90 90 94 94 96 102 112 118 119 117 115 101 97 101 101 103 103 94 86 84 79 74 72
73 78 61 34 173 164 224 144 145 203 235 216 278 163 157 212 211 247 96 106 128 189 27 324 246 354 199 220 308 204 153 118 122 123 115 124 140 154 152 149 146 158 161 187 181 181 180 177 161 163 174 170 156 149 162 160 161 152 152 151 148 143 140 133 124 117 114 113 112 108 98 91 89 88 80 88 89 94 102 105 112 119 118 119 112 103 99 103 107 103 94 88 86 82 76 68 64
56 94 113 74 202 149 202 173 187 218 141 204 184 201 122 155 200 193 86 39 67 19 63 312 322 351 266 271 296 160 132 134 146 140 146 144 157 162 171 168 166 178 171 182 193 186 182 176 178 149 151 156 159 143 140 158 160 156 153 152 147 141 134 126 125 128 123 117 115 111 109 105 99 95 94 89 94 97 98 104 104 115 119 110 108 103 100 99 97 96 94 91 87 81 71 69 60
99 110 95 208 191 229 148 201 195 129 230 179 182 182 157 195 142 222 114 246 79 112 304 13 317 325 358 20 105 131 138 142 156 160 159 164 170 177 175 173 178 165 187 184 185 188 189 182 170 180 148 166 163 159 162 161 163 158 156 152 144 139 137 135 134 132 133 132 122 116 116 116 111 102 102 103 101 102 105 107 113 116 108 101 99 101 100 98 96 94 90 87 83 76 70 70 68
211 121 186 250 205 221 216 178 207 203 122 155 162 210 147 186 144 198 174 163 90 178 186 320 244 256 317 91 128 136 145 157 166 169 175 178 180 180 180 187 179 192 188 189 182 190 189 190 181 185 181 176 171 150 148 163 166 163 159 153 145 143 144 145 145 144 144 140 133 124 119 118 115 111 105 106 102 101 105 104 85 73 75 75 77 78 81 85 87 82 82 79 73 70 76 70 77
219 83 165 223 196 126 243 180 234 229 169 172 149 82 138 230 194 143 161 115 258 261 229 175 199 202 186 169 153 152 155 165 180 186 186 187 192 194 192 192 193 193 188 172 183 193 192 190 188 189 186 181 177 164 170 152 169 164 163 154 153 152 150 151 153 149 150 144 136 132 128 123 121 117 114 103 102 106 107 100 84 82 80 81 87 85 83 76 75 80 73 69 68 74 76 66 74
89 204 206 181 135 45 193 197 183 139 156 115 137 135 203 78 67 115 153 163 212 210 220 217 198 160 157 167 178 164 168 174 187 191 197 192 192 195 197 205 211 196 171 184 192 188 190 191 191 187 186 188 182 176 169 174 174 172 168 159 157 161 160 158 157 157 153 149 143 138 129 123 124 124 120 111 105 114 113 104 99 104 94 95 97 100 93 93 87 90 89 83 77 75 75 71 60
176 318 276 210 203 142 307 56 297 144 121 142 143 193 102 137 197 195 177 190 233 223 222 206 183 175 170 153 153 170 177 184 191 199 197 198 201 202 200 198 194 196 194 200 188 191 186 188 192 188 191 188 187 177 176 164 184 177 173 166 162 170 166 162 167 164 163 155 148 147 141 139 134 132 127 125 118 111 118 112 111 108 112 107 107 109 101 97 101 97 95 92 90 88 80 75 73
106 183 195 12 188 168 349 3 23 145 136 180 192 102 129 151 171 133 199 242 231 284 281 227 139 118 139 150 180 176 185 186 197 201 198 199 196 199 196 195 202 197 202 203 197 193 187 191 188 188 192 189 188 179 178 173 186 180 177 169 173 170 167 173 170 169 159 161 155 155 148 147 146 140 137 135 136 115 123 115 116 111 112 110 110 111 112 107 104 101 103 97 93 87 93 84 82
111 124 219 205 60 318 347 52 65 95 79 357 118 127 284 172 160 82 245 244 253 272 22 119 132 138 154 166 177 190 194 205 211 211 218 227 220 217 226 222 213 204 211 207 201 198 196 190 187 192 190 190 188 182 183 184 188 186 179 179 182 166 177 176 169 161 165 164 163 158 154 148 146 143 149 148 137 139 127 123 122 121 118 125 121 110 119 121 112 112 108 105 99 98 94 91 88
167 149 125 50 48 340 337 32 41 51 96 80 101 132 326 230 200 235 231 245 245 96 65 117 133 146 170 183 186 184 192 202 207 206 211 210 205 201 221 213 208 212 214 207 204 206 199 189 193 194 191 190 187 184 188 184 190 190 187 185 184 166 183 172 163 170 171 168 170 170 167 160 160 158 153 152 150 150 146 136 125 129 127 136 127 123 129 121 124 115 111 109 108 102 96 97 96
139 91 104 103 306 333 354 131 3 347 92 313 144 236 315 314 102 282 307 264 100 96 97 126 149 173 185 188 193 201 195 204 204 205 202 211 215 210 220 215 216 218 209 214 210 208 197 192 198 194 192 189 189 189 189 189 190 196 190 185 184 180 178 167 170 174 175 177 174 171 171 170 160 160 157 156 154 151 153 149 144 137 132 140 136 124 123 121 118 118 123 122 115 107 96 92 96
93 135 99 32 354 81 21 68 14 1 36 69 133 155 308 302 78 229 220 330 223 149 145 161 183 184 191 197 197 204 211 219 209 170 205 202 211 209 212 209 216 211 206 215 210 200 198 203 198 195 192 189 193 194 188 191 193 196 191 188 189 181 177 176 173 175 181 182 174 177 176 174 171 166 164 161 159 158 160 157 152 150 148 145 137 130 123 117 116 111 105 103 103 101 95 76 71
138 109 101 314 6 63 4 132 310 14 180 214 270 79 301 63 232 232 254 343 102 169 175 193 205 213 214 209 210 208 218 216 196 210 217 215 214 211 217 215 212 208 218 215 206 198 207 204 202 198 193 192 197 198 196 193 194 194 191 191 188 177 182 178 178 181 182 185 179 181 182 178 176 171 173 170 164 164 163 161 161 160 154 148 141 134 124 121 115 112 101 103 99 97 96 84 77
120 40 119 35 14 348 295 304 335 110 229 61 4 220 266 252 244 175 308 50 78 127 234 225 226 225 223 214 217 231 240 230 219 220 222 220 217 213 222 223 214 214 216 211 196 209 207 204 204 200 199 198 200 201 201 198 193 200 194 189 186 183 184 186 184 181 183 185 183 184 184 181 180 178 175 172 168 165 166 169 166 161 159 150 142 140 136 137 129 124 125 112 108 110 108 104 102
136 221 56 111 90 248 309 20 302 138 324 2 124 187 288 273 275 271 291 203 159 202 230 235 234 239 234 220 225 232 241 223 225 225 226 226 224 221 225 230 217 218 216 208 208 211 197 205 198 207 202 204 199 204 204 203 192 198 199 192 187 186 196 190 185 184 185 186 185 185 187 184 184 179 181 178 174 169 169 168 170 170 161 154 148 152 142 140 136 137 139 123 115 106 105 95 97
25 82 276 326 158 274 298 290 158 159 326 44 93 279 240 262 281 298 319 186 174 208 225 236 240 238 236 231 226 237 242 235 242 246 239 234 225 225 221 226 212 212 213 212 212 196 203 205 200 208 201 206 204 205 205 203 199 197 206 200 190 188 191 202 199 188 186 190 186 186 189 186 187 183 181 181 180 178 173 173 174 164 166 158 151 149 146 144 141 134 140 138 130 127 120 103 91
1 83 239 221 103 255 345 122 334 58 129 6 156 222 318 319 272 286 354 85 144 193 252 257 251 248 245 236 231 237 255 257 244 239 238 230 228 224 225 227 215 213 211 207 204 197 204 202 200 205 205 205 205 205 205 203 198 199 202 205 200 192 197 197 195 202 193 185 191 199 192 188 188 184 181 182 185 183 180 176 170 167 166 165 157 155 153 151 149 144 145 146 142 140 132 120 104
263 35 146 212 162 239 257 303 351 30 82 217 6 216 236 253 284 295 317 64 59 218 251 255 253 248 246 247 244 241 242 251 247 234 232 222 228 220 224 224 221 216 212 209 205 199 203 196 198 203 208 204 203 201 201 199 198 198 200 205 205 207 206 200 197 192 209 196 183 187 188 196 203 195 185 179 181 184 181 173 162 167 167 162 164 159 155 150 150 151 145 146 144 140 135 133 121
200 202 101 262 289 200 215 152 213 55 14 181 2 291 279 273 284 296 282 357 322 277 250 257 255 251 255 250 247 244 244 245 247 238 230 222 225 223 221 222 220 212 210 206 202 205 200 198 198 204 204 200 202 197 193 192 187 198 201 202 209 214 213 209 198 200 200 201 197 189 184 183 188 196 198 192 190 176 170 153 155 164 165 157 151 164 151 151 151 153 149 135 117 113 137 131 125
190 177 173 145 147 219 214 245 275 162 137 229 201 219 260 280 293 287 295 23 240 268 292 279 264 254 249 246 246 244 240 247 247 254 252 236 223 221 220 218 219 212 207 196 200 197 200 199 197 201 203 197 191 185 173 184 183 192 199 214 234 224 216 208 209 205 197 205 199 188 193 191 186 190 190 185 180 180 169 155 157 167 170 159 157 165 168 165 160 151 149 141 129 110 92 124 131
121 86 101 166 164 274 278 288 285 17 98 243 234 257 273 277 271 275 273 314 309 294 283 271 263 261 254 249 245 244 242 241 259 229 241 237 232 224 219 210 216 205 200 191 194 201 199 198 186 201 195 183 179 182 184 184 192 197 211 206 212 203 210 210 210 210 204 204 197 195 192 189 183 190 190 182 181 175 179 166 164 174 175 168 170 179 183 174 164 151 144 146 141 132 128 145 142
141 137 129 165 178 163 221 135 353 324 152 287 28 302 264 259 272 270 275 298 266 247 253 259 258 253 255 254 259 252 243 283 286 278 264 262 253 243 217 204 190 193 213 194 198 202 199 192 194 199 179 185 191 190 189 191 196 198 193 202 188 169 197 208 216 212 214 204 197 202 200 194 186 191 192 193 191 186 176 170 169 178 176 176 176 174 172 167 159 149 145 137 158 150 155 170 166
52 148 158 108 242 237 295 282 333 324 77 265 34 339 274 267 262 265 253 243 238 224 219 237 242 258 254 252 251 260 278 271 289 264 260 246 251 240 208 207 208 211 208 200 207 192 188 192 201 193 189 188 196 191 183 197 195 196 189 184 175 173 276 222 215 237 195 209 222 210 206 203 200 199 187 181 175 176 175 166 175 174 187 181 168 174 175 174 176 164 163 156 154 155 144 175 178
108 99 114 187 235 115 242 280 358 360 75 305 314 315 281 272 272 261 257 242 254 252 243 250 232 243 247 242 243 257 263 267 268 267 270 262 216 220 213 213 214 206 203 202 196 195 192 198 199 194 193 194 193 195 193 186 160 124 74 107 105 122 168 164 123 58 179 213 228 231 235 218 214 202 190 188 184 182 180 182 181 182 187 190 184 175 178 179 178 173 169 165 156 151 168 183 203
355 114 124 122 165 218 148 188 352 315 39 57 346 304 295 333 331 321 304 331 266 274 288 271 260 244 254 280 278 237 252 254 264 273 270 271 260 224 209 216 193 198 205 202 196 195 194 199 200 194 191 193 194 183 175 146 121 105 94 69 80 81 60 92 134 192 201 213 229 218 223 215 224 253 227 194 189 187 187 187 182 185 186 188 190 186 184 183 180 179 176 168 171 163 169 174 199
357 222 167 193 171 136 270 14 86 21 347 352 47 353 310 299 291 248 276 341 320 276 319 272 259 258 252 258 256 262 249 237 237 251 250 242 241 247 240 222 195 207 209 210 200 199 193 200 193 191 187 184 183 175 165 158 166 164 159 158 171 187 204 177 201 203 195 203 210 202 202 204 217 218 217 235 203 179 181 186 189 179 179 180 185 186 184 180 190 185 186 180 181 182 165 167 185
116 241 168 159 137 123 120 95 73 357 140 338 27 146 271 320 283 283 309 333 304 302 267 272 277 274 270 254 260 250 246 252 246 257 256 250 249 251 254 225 213 207 220 182 185 196 196 193 192 188 187 182 173 171 168 165 169 179 186 192 195 198 209 223 205 197 195 209 197 200 206 207 213 211 218 205 221 229 190 177 180 189 194 191 186 179 185 195 193 189 184 189 193 181 168 172 182
196 234 113 108 102 120 149 100 99 180 249 301 39 97 231 303 285 256 339 327 297 304 291 280 282 298 276 259 251 242 242 240 237 247 252 245 243 220 230 224 211 221 177 165 188 188 193 194 185 189 183 176 177 168 172 179 180 184 190 201 202 207 212 217 195 202 195 179 199 208 207 215 211 216 215 215 205 184 215 200 180 179 184 190 191 198 193 192 192 196 192 192 186 191 189 180 180
218 186 120 113 131 138 109 89 101 95 31 281 334 294 270 255 266 318 346 319 296 278 268 275 298 296 289 274 258 246 243 246 219 249 262 244 233 235 240 242 232 188 180 191 194 196 192 182 180 172 177 171 171 170 174 187 186 184 191 191 208 219 214 220 194 190 181 186 205 215 218 219 219 221 219 214 212 204 185 190 195 185 184 190 190 201 202 201 198 187 183 185 190 193 200 202 178
234 126 88 91 80 70 90 101 82 349 87 268 242 196 199 278 277 333 340 249 269 258 260 270 266 286 299 299 281 264 279 278 262 257 269 273 258 248 234 220 191 209 204 199 195 165 170 159 169 172 185 171 163 168 176 185 187 178 188 199 209 216 211 218 171 202 205 190 215 212 216 221 226 225 225 227 216 205 202 200 195 194 190 188 188 196 197 197 201 206 199 192 187 190 194 195 197
131 100 76 36 36 20 24 60 78 59 341 251 252 309 163 290 270 231 147 214 209 271 303 283 290 301 310 280 273 283 285 288 290 275 263 268 261 246 241 191 216 232 212 181 183 173 160 163 164 173 180 153 158 175 178 188 193 192 201 203 209 212 205 193 202 223 212 208 221 218 206 214 210 223 218 220 224 217 210 206 204 201 196 189 190 193 197 197 199 200 202 209 197 190 190 198 208
124 109 124 75 360 12 32 345 32 139 271 263 248 218 144 189 290 279 240 275 235 216 268 285 305 313 301 328 329 311 296 305 326 324 290 317 86 34 118 199 197 215 204 200 190 165 159 155 147 162 160 171 174 177 184 198 198 207 211 207 212 214 197 200 210 218 208 214 215 218 206 202 215 218 215 223 222 221 222 215 210 202 198 193 196 198 199 199 197 197 201 200 203 204 201 197 203
79 91 70 113 239 40 275 14 257 219 203 223 331 167 332 238 239 259 281 274 265 217 223 238 267 297 307 322 332 323 315 333 326 312 315 313 255 216 198 217 207 204 210 209 195 171 155 150 159 170 195 184 185 182 194 201 203 209 207 210 216 208 208 209 216 224 210 216 210 217 202 214 208 215 218 218 224 212 221 223 211 208 202 201 198 194 199 197 197 200 202 207 211 203 202 200 201
97 127 132 98 112 80 243 274 256 307 292 262 281 202 256 248 271 241 245 256 233 223 231 241 248 272 280 285 306 321 319 300 289 300 304 289 264 240 227 226 213 211 218 214 192 164 158 166 174 183 203 185 188 194 201 205 212 210 206 210 211 200 211 208 217 220 218 216 207 215 212 212 212 216 213 221 216 223 225 227 221 215 205 199 197 198 197 196 195 198 200 203 206 210 208 210 214
209 81 142 175 143 156 204 197 209 217 205 277 277 61 232 125 240 231 241 261 285 266 257 256 264 263 266 274 280 279 282 292 289 298 274 265 268 255 250 231 228 219 210 204 186 173 167 185 185 191 195 198 193 202 201 211 214 213 211 213 211 203 210 208 215 213 214 214 215 219 222 220 220 220 216 218 206 216 231 233 234 227 210 197 197 200 199 197 197 200 204 208 209 207 208 205 211
9 157 82 89 223 139 150 209 148 231 337 347 230 216 191 173 279 290 246 283 289 270 256 249 283 267 298 297 274 300 305 280 277 270 271 262 256 276 267 259 247 232 215 200 193 184 185 198 191 195 199 197 198 201 209 209 215 212 214 212 214 211 213 215 224 217 222 213 219 217 225 220 224 221 220 211 215 209 221 228 226 226 218 203 193 197 200 199 197 200 205 207 210 204 208 208 211
226 104 208 208 122 97 93 68 27 105 41 255 159 307 290 297 314 269 297 319 296 320 317 321 290 301 333 294 279 303 263 267 265 261 261 270 283 268 254 258 264 250 231 214 211 201 199 193 194 202 208 202 203 208 210 209 213 212 219 216 215 214 213 216 219 219 218 217 216 222 223 223 221 218 221 209 217 213 219 226 226 221 216 209 201 198 199 201 197 200 205 205 209 203 205 210 210
96 174 232 189 157 118 126 205 351 68 191 266 95 234 299 22 284 325 351 270 272 285 273 268 295 298 309 271 281 228 241 254 270 271 273 274 280 279 267 250 242 244 239 240 236 232 250 241 212 204 201 206 211 204 208 205 207 212 213 215 217 216 218 222 220 222 215 217 222 223 223 226 219 217 216 216 213 215 219 223 228 224 215 210 207 201 200 200 196 203 208 209 210 204 208 211 212
140 198 195 111 226 215 313 89 240 144 268 272 296 272 258 192 245 333 315 190 242 255 260 274 280 295 277 285 246 231 229 247 267 264 273 278 270 264 254 249 241 236 234 232 230 217 215 224 235 223 218 216 212 207 204 207 204 208 207 210 210 214 218 221 220 220 214 219 223 220 219 223 222 216 221 222 219 217 216 223 228 230 220 216 209 206 201 202 198 203 206 212 209 206 208 214 215
43 89 92 106 103 171 126 201 176 122 239 52 288 35 249 196 215 202 230 225 228 250 272 250 252 249 271 295 303 335 335 329 308 286 266 268 266 252 251 253 252 241 233 229 226 224 226 222 221 232 246 240 229 217 205 211 203 201 209 206 213 210 212 213 213 212 217 220 222 218 220 222 220 215 219 221 221 219 213 215 219 227 230 224 215 209 202 202 201 208 206 209 210 205 210 213 214
102 110 201 209 29 231 111 35 131 180 171 185 258 311 274 261 211 184 212 214 222 208 218 223 227 270 257 279 334 314 305 297 296 287 270 260 268 281 273 259 257 256 241 222 209 217 224 217 230 227 229 236 232 223 210 222 197 209 205 212 210 206 213 209 216 214 221 223 220 216 219 220 213 220 212 220 222 221 223 221 218 219 222 222 217 213 205 202 204 211 212 211 209 206 210 216 213
172 169 192 179 134 148 164 255 35 92 117 230 142 261 262 265 173 202 190 218 215 228 263 294 279 260 332 344 302 277 282 285 280 282 275 220 203 235 272 272 272 277 258 240 213 212 226 223 224 221 227 236 232 228 219 214 208 212 215 216 214 211 208 208 217 217 223 223 219 215 215 213 217 220 207 220 222 221 220 223 226 227 224 223 222 216 205 201 205 209 214 212 210 209 212 217 213